Location: Chiroubles
(46.1812°N, 4.6660°E)
Time: 03:51:39
(UTC+00:00)

Tiros 1 - Pass Details

Date: 04 December 2020
Orbit: 630 x 663 km, 48.4° (Epoch: 16 January)

Event Time Altitude Azimuth Distance (km) Brightness Sun altitude
Rises 17:19:40 0° 287° (WNW) 2,995 11.5 -13.9°
Reaches altitude 10° 17:22:01 10° 287° (WNW) 2,079 10.6 -14.3°
Maximum altitude 17:26:50 85° 200° (SSW) 665 7.2 -15.1°
Enters shadow 17:30:15 19° 112° (ESE) 1,547 8.6 -15.7°
